Temperature
29 29 29 29 29 29 28 27 26 26 26 26 25 24 23 22 21 20 19 18 16 15 14 13 13 12 11 11 10 10 9 9 9 9 9 8 8 8 8 8 8 8 8 7
28 29 29 28 29 28 28 27 27 27 26 26 25 24 23 21 20 19 18 17 16 15 14 13 12 12 11 11 10 10 9 9 9 9 8 8 8 8 8 8 8 7 7 7
26 28 28 27 28 28 28 28 27 26 26 25 24 23 22 21 20 18 17 16 15 14 13 13 12 11 11 10 10 9 9 9 9 8 8 8 8 8 8 8 7 7 7 7
26 27 25 28 29 29 27 27 27 27 26 25 24 23 21 19 18 17 16 15 14 13 13 12 12 11 11 10 9 9 9 9 8 8 8 8 8 8 7 7 7 7 7 7
26 26 27 28 28 28 27 26 27 26 25 24 23 22 20 18 18 17 16 15 14 13 13 12 11 11 10 10 9 9 9 9 8 8 8 8 7 7 7 7 7 7 7 7
26 25 25 27 28 27 26 25 25 25 24 23 23 22 21 19 18 16 15 14 13 13 12 12 11 10 9 9 9 9 8 8 8 8 8 8 8 8 8 7 7 7 7 7
25 25 27 27 27 27 25 23 24 24 23 22 22 20 19 19 17 16 15 14 13 12 12 11 10 10 9 9 9 8 8 8 8 8 7 8 8 8 8 7 7 7 7 7
27 26 26 27 27 26 25 24 24 23 23 22 21 20 19 18 17 16 15 14 13 12 11 11 10 9 9 9 8 8 8 8 8 8 8 8 8 8 8 8 8 7 7 7
27 26 26 26 26 26 25 24 23 23 22 21 20 19 19 18 16 15 14 13 13 12 11 11 10 9 9 8 8 8 8 8 8 8 8 8 8 8 8 8 8 7 7 7
26 27 27 27 26 26 25 24 23 22 22 21 20 19 18 17 16 15 14 13 12 12 11 10 10 9 9 8 8 8 7 7 7 7 8 8 8 8 8 8 8 7 7 7
26 27 27 27 26 26 25 24 23 22 21 20 19 19 18 17 15 14 13 13 12 11 11 10 10 9 9 8 8 8 7 7 7 7 8 8 8 8 8 8 8 7 7 7
27 27 27 26 26 25 24 24 23 22 21 20 19 18 17 16 15 14 13 13 12 11 11 10 10 9 8 8 8 7 7 7 7 7 8 8 8 8 8 8 8 8 7 7
27 27 27 26 26 25 24 24 23 22 21 20 19 18 17 16 15 14 13 13 12 11 10 10 9 9 8 8 8 8 7 7 7 7 8 8 8 8 8 8 8 8 7 7
27 26 26 25 25 24 24 24 23 22 21 20 19 18 17 16 15 14 13 12 11 11 10 10 9 9 8 8 8 8 8 7 7 7 8 8 8 8 8 8 8 8 7 7
26 26 25 25 25 24 24 23 23 22 21 20 19 18 17 16 15 14 13 12 11 11 10 10 9 8 8 8 8 8 8 8 8 8 8 8 8 9 8 8 8 8 8 7
26 26 25 25 25 24 24 23 22 22 21 20 19 18 17 15 14 14 13 12 11 10 10 9 9 8 8 8 8 8 8 8 8 8 8 9 9 9 9 8 8 8 8 7
25 25 25 24 24 24 24 23 22 22 21 20 19 18 16 15 14 13 12 12 11 10 10 9 8 9 9 8 8 8 8 8 9 9 9 9 9 9 9 8 8 8 8 7
23 24 24 24 24 24 23 23 22 22 21 20 19 17 16 15 14 13 12 11 11 10 10 9 9 9 9 8 8 8 8 8 8 9 9 9 9 9 9 8 8 8 8 8
22 22 22 22 22 23 22 22 22 21 20 19 18 16 15 14 13 13 12 11 11 11 10 10 9 9 8 8 9 9 8 8 9 9 9 9 9 9 9 9 8 8 8 8
20 20 20 20 21 21 21 21 21 20 19 18 17 16 15 14 13 12 12 11 11 10 10 9 9 8 8 9 9 9 8 8 9 9 9 9 9 9 9 9 9 9 8 8
18 18 18 19 19 19 19 19 19 18 18 17 16 15 14 13 13 12 12 12 11 11 10 9 8 8 9 9 9 8 8 8 9 9 9 9 9 9 9 9 9 9 9 9
16 16 16 17 17 17 17 17 17 17 17 16 15 14 14 13 13 12 12 12 11 11 10 9 8 9 9 9 9 8 8 8 9 9 9 9 10 10 10 9 9 9 9 9
14 14 15 15 15 16 16 16 16 16 16 16 15 14 14 13 13 13 12 12 11 10 10 9 9 8 9 8 8 8 8 8 8 9 9 9 9 10 10 10 10 10 9 9
13 14 14 14 15 15 15 16 16 16 16 15 15 14 14 13 13 12 12 12 11 11 10 9 8 8 8 8 8 8 8 8 8 8 9 9 9 9 10 10 10 10 10 10
13 13 13 13 14 15 15 15 16 16 15 15 15 14 13 13 12 12 12 12 11 10 9 8 8 8 7 7 7 8 8 8 8 8 8 9 9 9 9 10 10 10 10 10
13 13 13 13 13 14 14 15 15 15 15 15 14 14 13 13 12 12 12 11 10 10 9 8 7 7 7 7 7 7 7 8 8 8 8 9 9 9 9 9 9 9 10 10
13 13 13 14 14 14 14 15 15 15 15 15 14 14 13 13 12 12 11 11 10 9 8 8 7 7 7 6 6 7 7 7 7 8 8 8 8 9 9 9 9 9 9 9
Wind_Speed
9 8 7 8 8 7 6 7 9 10 11 9 10 10 9 9 9 10 10 10 11 11 10 10 10 10 11 11 11 11 12 13 12 11 10 11 11 11 11 12 14 12 12 12
13 11 9 11 10 7 6 7 9 10 10 9 10 10 10 10 10 9 10 11 12 12 12 11 11 11 11 11 11 10 11 13 12 12 12 12 11 12 12 12 12 12 12 13
13 13 11 10 5 2 5 8 9 10 9 9 10 11 10 9 7 8 10 12 12 12 11 10 10 10 10 11 11 12 12 13 12 13 13 13 14 14 13 13 13 12 13 13
12 14 14 7 1 2 3 6 8 10 6 9 10 10 8 7 6 8 10 11 11 12 12 12 11 11 10 12 13 13 13 13 13 13 14 13 13 14 13 12 12 12 13 13
10 13 12 4 2 1 3 7 7 5 7 10 11 11 6 7 6 7 9 9 10 12 13 12 12 11 12 13 13 14 14 14 14 14 15 14 15 14 13 12 12 12 12 12
10 14 16 13 6 5 3 2 8 7 7 9 10 9 5 8 8 8 9 9 10 11 12 11 11 12 13 14 14 14 14 15 15 14 15 15 15 14 12 11 12 12 12 11
12 14 9 8 7 2 7 3 3 7 7 8 7 6 8 8 8 8 9 10 10 11 10 10 10 11 12 14 14 14 15 15 15 15 15 15 13 11 11 11 11 11 11 10
11 11 4 5 3 6 4 1 4 6 6 6 6 6 7 8 8 8 9 10 11 10 10 10 10 10 13 13 14 14 15 16 15 15 15 15 13 11 11 10 10 10 9 9
6 7 2 5 6 4 2 3 4 5 5 5 6 7 7 7 7 8 9 10 10 11 11 10 10 10 12 13 13 15 15 16 16 17 15 13 12 11 10 8 8 8 7 7
8 9 9 10 10 6 4 4 4 4 4 4 6 6 7 7 7 8 8 9 10 11 12 11 11 11 11 12 13 14 15 16 15 15 15 13 10 9 8 8 7 7 7 7
13 12 11 10 8 6 4 4 4 4 4 5 5 6 6 6 6 7 8 9 9 10 11 12 11 11 11 11 12 14 15 15 15 14 13 12 11 8 8 6 4 5 7 7
10 8 8 9 8 5 5 6 6 6 6 5 5 5 5 6 6 7 8 9 9 11 12 13 12 12 11 11 12 13 14 14 13 13 12 11 11 10 7 6 5 5 5 5
12 10 10 9 6 5 6 7 7 7 6 6 5 4 5 5 6 7 8 9 10 11 12 12 12 11 11 11 12 13 14 14 12 12 12 11 10 9 8 5 6 8 7 6
12 9 9 9 9 8 8 9 8 7 6 6 5 4 5 5 6 7 8 9 10 11 12 11 11 12 11 12 13 14 14 13 12 11 11 11 10 9 7 6 5 4 5 7
11 9 9 9 10 10 9 9 9 9 8 8 7 6 5 5 6 7 7 8 9 11 11 11 11 11 11 13 14 14 13 11 11 12 11 11 10 9 7 6 5 4 2 3
12 11 10 10 10 11 11 11 11 10 9 8 7 5 4 4 5 6 7 7 9 10 11 10 10 11 12 13 13 12 11 13 13 12 11 10 9 8 6 5 5 4 3 1
11 10 10 10 11 11 12 12 11 11 10 8 6 5 4 4 5 6 6 7 8 9 9 8 9 11 12 12 12 11 11 12 14 11 9 9 9 8 6 5 5 4 3 1
10 11 11 11 11 12 11 11 10 10 8 7 5 5 5 5 5 6 6 8 9 9 6 6 9 11 11 10 10 11 11 10 10 11 9 8 8 8 6 5 5 5 3 1
11 12 13 13 12 11 10 8 7 6 5 4 4 4 4 5 5 5 6 7 9 8 6 8 9 10 10 9 11 10 10 11 11 10 8 7 7 7 6 5 5 4 4 3
13 13 14 14 13 11 9 6 5 2 2 4 4 4 5 5 5 5 6 7 6 4 6 8 9 9 9 10 12 10 10 10 11 10 8 7 7 7 5 4 5 5 4 4
15 16 16 15 14 12 10 8 5 3 3 4 5 6 6 6 6 6 6 7 1 3 4 8 6 6 8 11 13 9 9 10 10 10 9 8 7 6 5 4 4 4 4 4
15 15 16 16 14 12 10 9 7 5 4 6 7 8 8 7 8 7 7 5 1 4 3 6 4 6 10 13 9 8 8 9 9 9 9 9 7 6 5 5 4 4 4 4
14 14 15 15 15 14 12 11 9 8 7 8 10 10 10 8 7 7 6 3 3 3 2 3 3 6 12 9 7 7 8 9 9 9 9 8 7 6 6 5 4 4 3 3
15 16 16 16 16 16 15 14 12 9 10 10 11 12 11 9 9 9 6 7 7 4 2 3 2 6 10 6 6 7 7 8 8 9 9 8 7 7 7 7 5 5 5 5
17 17 18 17 16 15 13 13 12 11 13 12 13 13 12 11 10 8 5 8 10 6 3 6 8 7 7 5 5 6 7 7 8 9 8 8 8 7 7 8 7 6 6 6
15 15 15 14 15 14 15 14 13 12 11 11 10 10 10 10 9 7 5 6 8 6 4 2 3 4 3 5 5 6 7 7 8 8 9 8 8 8 7 7 8 7 7 8
16 14 12 13 13 12 12 11 10 10 9 7 8 8 8 9 8 7 7 5 4 4 2 1 1 2 4 5 5 6 6 7 7 8 9 8 8 8 8 8 7 7 7 7
Wind_Direction
310 309 312 314 310 311 311 316 310 324 326 15 30 7 358 349 350 345 346 345 344 339 335 331 329 326 321 319 318 318 315 311 307 304 303 300 298 297 294 292 291 288 285 282
305 302 287 288 288 278 288 297 299 311 321 29 17 2 354 347 337 334 342 340 335 332 331 328 325 322 322 318 318 317 312 309 307 305 303 301 301 299 296 294 292 288 284 281
305 309 300 301 298 278 317 317 318 314 332 16 360 348 338 333 338 347 341 333 333 333 328 323 322 324 321 320 319 316 313 309 308 307 306 305 307 305 301 299 295 289 285 280
294 301 297 306 275 312 327 320 310 305 355 14 352 345 3 50 34 348 335 337 336 328 323 322 326 325 324 322 320 317 313 311 312 310 308 308 306 302 300 299 296 292 287 283
293 294 298 309 226 194 325 309 320 352 12 349 348 328 80 57 10 349 346 340 329 323 321 323 325 328 325 321 319 316 315 316 316 314 311 308 306 303 301 299 297 293 289 283
275 289 295 309 107 95 336 327 48 24 355 342 334 321 352 14 360 0 345 332 325 323 323 325 328 328 323 319 318 318 319 318 316 313 310 307 303 301 301 298 295 297 294 289
266 276 292 82 101 305 313 54 6 347 343 333 342 321 323 335 353 349 335 329 329 329 326 326 326 325 319 318 319 321 319 316 314 312 309 303 302 303 302 299 299 299 297 294
277 283 315 105 310 338 3 357 324 329 328 332 321 312 322 336 344 338 332 331 333 330 327 325 327 325 319 319 323 322 319 316 315 313 311 310 307 304 303 301 301 301 303 303
308 314 292 262 297 317 322 301 306 309 322 325 312 314 323 333 338 333 330 332 331 328 325 324 329 328 319 321 324 322 320 317 315 313 310 307 306 305 305 304 304 308 312 313
290 285 290 293 296 284 265 257 272 291 303 300 298 309 320 328 329 329 330 328 329 327 325 325 328 328 322 323 325 322 320 318 314 312 311 312 310 308 307 310 312 316 319 321
274 274 273 272 277 269 259 236 244 261 267 273 284 295 309 320 325 330 324 324 326 325 324 324 328 325 325 328 327 323 320 318 316 313 312 313 312 310 305 309 302 300 313 319
299 309 299 295 288 262 242 236 241 249 260 266 275 290 304 313 322 319 318 324 325 326 325 326 326 326 329 331 329 324 319 318 317 314 314 315 316 314 295 279 259 247 259 283
293 289 284 287 278 258 248 245 237 229 236 251 264 277 292 300 307 314 320 327 327 325 324 323 325 328 333 333 328 321 316 315 314 314 314 315 315 314 311 291 251 250 254 258
291 280 273 276 275 265 253 251 243 234 228 233 244 255 273 290 305 315 322 324 324 323 321 325 328 329 335 332 324 319 318 314 314 315 315 313 312 311 311 312 306 284 238 232
289 270 261 261 259 259 251 245 242 238 233 229 227 235 256 281 300 308 316 322 323 321 325 330 328 330 336 329 322 320 319 319 320 317 312 312 314 317 321 324 317 307 278 191
291 282 272 266 262 262 259 247 243 243 243 242 237 237 253 274 290 302 313 322 325 325 325 324 326 332 332 324 322 320 317 314 315 316 317 320 326 330 336 335 334 327 316 261
296 293 290 284 276 268 260 252 245 243 243 241 231 225 237 262 283 296 314 325 324 315 314 324 332 334 324 321 324 322 320 320 317 316 324 330 333 334 340 340 338 338 341 21
321 318 311 302 294 287 276 263 250 239 233 234 221 212 224 251 277 301 313 317 312 305 321 343 348 326 315 324 331 321 317 320 323 323 326 332 331 331 340 342 347 355 345 318
350 343 335 325 315 305 294 285 271 247 214 204 213 221 229 250 268 286 299 307 302 304 344 350 337 313 320 339 341 318 317 323 326 327 332 330 327 338 351 353 353 357 352 352
6 360 351 341 336 330 321 312 298 269 192 183 197 216 235 249 263 276 288 289 294 339 343 337 319 318 330 341 336 318 321 326 329 331 335 340 345 347 1 4 359 356 357 0
7 3 359 352 347 343 338 330 312 271 212 197 204 220 234 243 254 263 271 284 325 73 333 302 292 336 340 331 310 313 328 331 332 335 339 347 353 352 2 8 358 2 9 13
359 354 350 345 342 339 334 323 304 278 231 204 211 223 228 233 243 249 250 256 239 102 318 310 353 2 334 318 310 327 335 334 334 338 342 347 354 354 3 16 14 13 15 18
340 337 333 331 326 319 312 301 284 267 246 224 213 217 224 224 234 246 255 212 158 116 295 329 24 329 319 310 320 334 338 339 340 342 344 347 353 352 354 9 19 27 25 31
322 319 316 313 309 304 297 289 279 262 250 239 226 218 218 222 226 229 224 144 142 146 280 132 191 297 297 299 335 346 345 346 344 342 343 346 355 357 358 3 15 23 21 36
308 306 303 299 296 292 288 282 274 258 251 245 238 225 220 224 230 231 207 154 150 170 244 181 201 256 288 330 358 355 350 354 343 332 339 351 357 2 7 3 5 15 16 20
297 293 293 289 288 286 287 283 279 273 264 254 244 235 227 222 217 207 190 186 171 177 236 242 226 252 319 354 8 4 358 351 346 346 350 354 358 358 1 2 1 14 21 22
291 290 287 288 292 297 302 301 299 297 291 279 264 246 230 218 201 189 190 193 176 185 216 269 331 360 13 13 14 13 9 2 355 348 350 354 354 350 355 2 8 22 26 25
Height
1477 1471 1471 1473 1473 1473 1478 1482 1488 1486 1484 1482 1485 1488 1490 1492 1493 1494 1494 1494 1493 1491 1489 1486 1483 1480 1477 1474 1470 1467 1462 1459 1455 1451 1448 1444 1440 1436 1432 1429 1426 1423 1420 1417
1481 1472 1471 1472 1469 1471 1475 1477 1479 1481 1482 1480 1484 1487 1489 1491 1492 1492 1492 1492 1490 1488 1486 1483 1480 1477 1473 1470 1466 1463 1458 1454 1450 1447 1443 1439 1435 1431 1426 1422 1419 1416 1412 1409
1488 1474 1473 1478 1469 1470 1473 1473 1476 1482 1481 1480 1484 1487 1488 1489 1490 1491 1491 1490 1488 1485 1483 1480 1477 1473 1470 1466 1462 1458 1454 1450 1446 1442 1437 1433 1429 1425 1420 1416 1412 1408 1405 1402
1487 1484 1496 1475 1463 1465 1471 1474 1474 1475 1477 1482 1484 1486 1487 1487 1489 1490 1489 1487 1485 1483 1480 1477 1473 1470 1466 1462 1458 1454 1450 1445 1441 1437 1432 1428 1423 1419 1414 1410 1406 1401 1397 1394
1490 1490 1482 1470 1465 1467 1473 1476 1472 1475 1480 1482 1483 1485 1486 1488 1488 1488 1486 1485 1482 1480 1477 1473 1470 1466 1462 1458 1454 1450 1446 1441 1436 1432 1427 1422 1417 1413 1409 1404 1399 1395 1391 1387
1487 1494 1494 1472 1462 1467 1473 1478 1478 1479 1481 1483 1483 1484 1484 1486 1486 1485 1484 1482 1479 1476 1473 1470 1466 1462 1458 1454 1450 1446 1441 1437 1432 1427 1422 1417 1412 1408 1403 1398 1394 1389 1385 1381
1485 1485 1474 1466 1467 1469 1480 1484 1480 1480 1481 1483 1483 1486 1486 1484 1483 1482 1481 1479 1476 1473 1470 1467 1463 1459 1455 1451 1447 1442 1437 1432 1427 1422 1417 1412 1408 1403 1398 1393 1389 1384 1380 1376
1475 1481 1480 1469 1468 1472 1477 1476 1477 1479 1480 1481 1482 1483 1482 1482 1481 1480 1478 1476 1473 1470 1467 1463 1459 1455 1451 1447 1443 1437 1432 1427 1422 1417 1413 1408 1403 1398 1394 1389 1385 1380 1376 1372
1470 1474 1470 1468 1468 1470 1472 1474 1476 1478 1479 1480 1480 1480 1480 1480 1479 1477 1476 1473 1470 1467 1464 1460 1456 1452 1447 1443 1438 1433 1428 1423 1418 1413 1408 1404 1399 1395 1390 1386 1382 1378 1374 1370
1466 1464 1464 1465 1465 1466 1469 1471 1474 1475 1477 1477 1478 1478 1478 1477 1476 1475 1473 1470 1467 1464 1460 1457 1453 1449 1444 1439 1435 1429 1424 1418 1413 1409 1404 1400 1396 1391 1387 1383 1379 1376 1372 1368
1462 1460 1460 1460 1462 1463 1466 1468 1470 1472 1474 1475 1475 1475 1475 1474 1473 1472 1470 1467 1465 1461 1457 1454 1450 1445 1441 1436 1431 1426 1420 1415 1410 1405 1401 1396 1392 1388 1384 1381 1377 1373 1370 1366
1458 1457 1458 1459 1460 1461 1463 1466 1468 1469 1471 1472 1472 1472 1472 1472 1470 1469 1467 1464 1462 1458 1455 1451 1446 1442 1438 1433 1428 1423 1417 1411 1407 1402 1398 1393 1389 1385 1381 1378 1374 1370 1368 1365
1453 1453 1454 1455 1456 1458 1460 1462 1464 1465 1467 1469 1469 1469 1469 1468 1467 1466 1464 1461 1458 1455 1451 1448 1444 1439 1435 1430 1425 1420 1414 1409 1404 1399 1395 1391 1386 1382 1378 1374 1371 1368 1365 1363
1450 1451 1452 1454 1455 1456 1457 1458 1460 1461 1463 1464 1465 1466 1466 1465 1464 1463 1461 1458 1455 1452 1449 1445 1441 1437 1432 1427 1422 1417 1412 1407 1402 1397 1393 1388 1384 1380 1376 1372 1368 1365 1363 1361
1447 1447 1448 1450 1451 1452 1453 1454 1456 1457 1459 1460 1461 1462 1462 1462 1461 1460 1458 1455 1452 1449 1446 1442 1438 1434 1429 1424 1419 1415 1410 1405 1400 1396 1391 1387 1383 1378 1374 1370 1367 1364 1361 1359
1445 1444 1445 1446 1447 1448 1449 1450 1451 1453 1454 1456 1457 1458 1458 1458 1458 1456 1455 1452 1449 1446 1443 1439 1435 1431 1426 1422 1417 1412 1408 1404 1399 1395 1390 1386 1382 1377 1373 1369 1366 1363 1360 1359
1443 1443 1443 1443 1443 1444 1444 1445 1446 1448 1449 1451 1452 1454 1454 1455 1454 1453 1451 1449 1446 1443 1440 1437 1433 1428 1423 1419 1415 1411 1406 1402 1398 1394 1390 1386 1381 1377 1373 1369 1366 1362 1360 1358
1443 1442 1442 1441 1441 1440 1440 1440 1441 1443 1444 1446 1448 1450 1451 1451 1451 1450 1448 1446 1443 1441 1438 1434 1429 1425 1421 1417 1413 1409 1405 1401 1397 1394 1390 1386 1382 1378 1373 1370 1366 1363 1360 1358
1443 1442 1441 1440 1439 1438 1437 1437 1438 1439 1440 1443 1445 1447 1448 1448 1448 1446 1444 1442 1440 1438 1435 1430 1426 1422 1419 1416 1412 1408 1404 1401 1397 1394 1390 1387 1382 1378 1374 1371 1367 1364 1361 1359
1444 1442 1441 1439 1438 1437 1436 1436 1436 1437 1438 1440 1442 1444 1445 1445 1444 1443 1441 1439 1437 1434 1431 1428 1424 1420 1417 1414 1410 1406 1404 1401 1397 1394 1391 1387 1383 1379 1376 1372 1369 1366 1364 1361
1445 1443 1442 1440 1438 1437 1436 1436 1435 1435 1436 1437 1439 1440 1440 1440 1440 1439 1437 1435 1433 1430 1428 1425 1422 1418 1415 1412 1408 1405 1403 1400 1397 1394 1392 1388 1384 1381 1378 1375 1372 1369 1366 1364
1447 1445 1443 1441 1439 1437 1436 1435 1434 1433 1433 1433 1434 1435 1435 1435 1435 1434 1432 1431 1429 1426 1425 1423 1420 1416 1413 1410 1407 1405 1402 1399 1397 1395 1392 1389 1386 1383 1381 1378 1375 1372 1369 1367
1448 1446 1443 1441 1438 1436 1434 1433 1431 1430 1429 1428 1427 1428 1428 1428 1428 1428 1427 1426 1424 1423 1421 1419 1416 1413 1410 1408 1406 1404 1402 1399 1397 1395 1393 1391 1388 1385 1383 1380 1378 1375 1372 1370
1446 1443 1441 1438 1435 1432 1430 1428 1426 1424 1422 1421 1420 1420 1420 1421 1421 1421 1421 1420 1419 1418 1417 1415 1413 1411 1408 1406 1405 1403 1400 1398 1396 1395 1393 1391 1389 1387 1385 1383 1380 1378 1376 1374
1441 1438 1435 1432 1430 1426 1423 1421 1419 1416 1415 1414 1413 1413 1413 1414 1415 1415 1415 1414 1413 1414 1413 1412 1410 1408 1407 1405 1403 1401 1399 1397 1396 1394 1393 1392 1390 1388 1387 1385 1383 1381 1379 1377
1436 1433 1429 1426 1423 1420 1417 1415 1412 1409 1408 1406 1406 1406 1406 1407 1408 1408 1409 1409 1410 1410 1411 1410 1408 1407 1405 1404 1402 1399 1398 1397 1395 1394 1393 1392 1391 1390 1388 1386 1385 1384 1382 1380
1429 1426 1422 1419 1416 1414 1411 1408 1406 1404 1402 1400 1399 1399 1400 1400 1401 1403 1405 1406 1407 1408 1408 1408 1407 1405 1403 1401 1400 1398 1396 1395 1394 1393 1392 1392 1391 1390 1389 1388 1387 1385 1384 1383